Theta_e
319 318 318 319 317 316 316 316 316 316 316 317 317 316 312 310 311 311 310 309 310 315 312 314 315 316 316 317 317 316 315 314 317 320 322 324 323 323 327 327 332 333 335 334 334 334 332 330 331 335 333 331 330 331
322 320 319 319 320 319 317 316 316 316 316 317 317 316 313 310 311 311 310 309 309 309 309 310 310 312 315 314 314 314 313 313 316 321 321 320 324 328 331 326 329 330 328 329 333 331 332 331 333 331 329 330 332 331
323 322 321 319 320 322 320 318 317 317 317 317 317 317 314 310 311 311 313 312 310 308 309 310 311 312 313 313 311 313 313 314 313 314 317 318 321 322 328 330 332 332 327 331 332 332 331 330 329 328 328 331 330 331
321 323 323 321 321 321 321 322 320 318 317 317 317 317 310 312 312 313 313 315 314 313 314 314 313 314 317 317 317 317 316 316 315 314 316 318 319 320 323 326 330 330 332 335 334 332 331 332 328 326 328 327 330 332
319 320 322 322 321 320 320 321 322 322 320 317 317 316 309 312 313 312 315 314 314 313 314 315 314 314 316 317 317 317 317 315 315 317 316 317 316 317 320 323 323 326 326 327 329 330 330 327 325 323 325 326 331 332
317 317 319 319 320 319 320 319 321 322 321 317 317 317 310 314 315 314 316 315 315 313 313 317 315 315 317 317 319 320 320 315 315 316 317 317 316 317 321 321 320 320 324 321 326 321 324 324 321 322 325 325 329 333
315 319 319 320 320 319 319 319 319 322 321 318 317 317 311 316 315 314 316 316 315 314 314 315 317 317 318 320 321 321 320 315 315 316 315 316 317 315 319 322 320 320 318 318 319 320 324 323 325 324 326 325 330 330
314 319 320 319 320 320 319 318 320 322 321 318 318 313 313 317 316 316 316 317 314 313 313 316 319 319 320 321 322 320 322 319 319 318 318 318 318 317 321 321 320 319 319 319 318 318 320 321 326 322 329 330 329 332
313 317 318 318 317 315 315 319 320 322 321 318 316 313 316 316 317 318 317 315 313 313 315 315 321 324 319 320 320 321 320 325 320 323 324 325 325 326 323 323 324 325 324 322 325 330 328 331 330 328 328 328 334 333
305 307 308 309 310 311 314 320 321 321 320 318 312 317 319 318 317 314 314 313 313 313 313 314 314 320 319 321 324 324 321 325 327 324 324 326 325 322 319 322 324 325 326 329 326 329 332 332 333 332 332 331 332 333
304 305 305 306 309 311 313 319 320 320 319 314 313 316 316 315 314 314 316 316 315 315 314 315 315 319 318 323 325 322 326 323 328 327 326 323 322 320 321 323 323 327 327 327 329 330 333 333 334 336 335 335 334 334
304 305 305 309 313 317 316 319 319 319 318 317 313 310 310 312 314 316 318 318 318 322 318 318 319 316 319 319 324 325 326 324 327 325 326 323 322 319 321 320 321 324 327 328 328 329 330 331 330 330 330 331 332 333
305 305 306 315 317 317 317 318 317 318 318 313 313 313 313 314 313 317 323 323 324 322 322 321 324 322 321 322 325 324 325 327 322 325 324 322 319 319 319 320 320 320 323 324 326 326 325 325 325 325 326 328 328 328
305 305 306 309 315 316 318 317 318 319 314 311 315 312 317 318 318 320 322 322 322 322 323 322 324 324 322 324 324 326 324 323 326 328 327 323 320 320 320 319 319 320 320 322 324 323 324 326 326 326 326 325 325 325
306 306 307 310 313 316 317 318 318 317 312 312 315 317 319 318 319 320 320 321 322 321 323 323 322 323 325 325 323 324 325 327 325 326 322 319 318 319 319 319 319 319 319 319 322 323 323 324 326 325 324 324 324 323
308 308 313 316 316 317 318 318 316 313 311 312 313 318 319 319 321 320 321 322 321 323 322 322 323 325 325 324 325 326 327 327 323 321 318 317 319 319 319 319 318 318 319 319 319 321 322 324 325 325 324 324 323 324
309 312 313 315 317 317 317 315 314 313 312 315 316 316 316 317 318 320 318 321 323 322 324 322 324 324 321 325 325 323 325 321 319 318 318 318 319 319 320 319 319 318 318 318 320 321 321 321 322 324 324 324 325 328
309 310 312 313 313 314 314 315 315 313 314 314 315 316 316 319 321 321 322 323 324 322 322 324 321 324 324 324 324 320 319 318 318 318 318 318 317 317 317 317 317 318 319 319 320 320 320 320 321 322 325 327 326 330
309 310 311 312 312 313 314 314 315 315 316 316 316 316 317 317 317 318 319 320 323 322 321 321 322 323 323 320 319 317 316 316 316 316 316 317 317 316 317 317 317 318 318 319 321 320 320 320 321 322 326 326 328 330
310 311 314 314 313 314 314 313 314 315 318 320 319 319 320 321 322 323 322 322 322 320 320 322 322 320 319 318 317 316 315 316 316 317 317 317 317 315 315 316 317 316 316 317 318 320 322 321 321 324 325 326 329 331
311 314 314 313 312 312 314 313 315 317 320 320 321 322 323 322 323 323 323 322 321 322 322 319 317 317 317 316 316 315 316 315 316 316 317 317 316 316 316 317 318 318 317 317 317 320 321 323 324 325 329 327 330 328
311 313 314 313 313 314 314 316 314 314 313 318 318 319 322 325 324 323 322 322 322 322 321 319 318 317 316 315 315 316 316 317 317 316 317 316 317 315 317 317 318 320 319 317 319 321 323 325 325 327 328 329 330 330
311 313 313 313 313 313 314 314 315 316 318 318 318 321 322 325 323 321 324 322 322 321 321 318 316 317 316 315 316 316 316 316 315 319 315 312 314 317 317 317 321 321 320 321 322 324 325 325 326 327 329 330 330 329
312 313 314 314 314 314 316 316 316 317 318 320 321 324 323 322 320 323 326 324 322 321 317 316 316 317 317 316 316 317 316 316 319 317 313 311 312 316 316 318 322 322 322 323 324 324 324 324 324 325 326 327 326 326
313 313 313 313 314 316 318 320 319 321 322 322 321 323 324 322 326 326 326 325 322 321 316 316 317 317 317 317 317 316 317 319 319 317 312 312 313 317 317 317 322 322 322 322 322 323 323 323 323 323 324 324 323 322
312 314 313 316 318 319 321 323 322 321 322 323 324 323 322 324 325 326 325 322 321 321 318 316 316 316 316 316 317 317 320 319 318 317 313 312 312 315 318 317 316 319 321 321 322 322 322 322 323 323 323 323 322 321
314 316 316 316 316 317 317 317 319 322 324 325 325 323 323 325 326 325 321 321 321 320 320 318 317 316 316 317 319 320 320 319 319 317 313 312 312 313 316 316 319 318 319 319 320 320 321 322 321 319 320 322 322 322
314 314 317 318 317 316 318 320 323 324 323 321 321 323 324 325 325 321 321 320 320 320 321 320 319 317 316 319 320 321 320 319 318 317 314 312 311 311 313 316 317 317 318 319 319 320 321 317 316 319 320 318 317 317
314 315 315 317 317 318 319 321 322 322 321 320 322 324 324 322 323 323 323 320 319 319 319 318 318 317 318 320 321 321 319 318 318 315 313 313 311 310 314 315 316 316 316 319 319 317 316 318 319 319 320 316 316 318
316 315 316 317 319 319 319 320 321 322 322 321 322 322 322 322 322 322 322 322 320 318 318 318 319 320 321 321 321 320 319 318 317 315 314 313 311 310 312 313 314 315 315 315 318 319 319 319 319 319 315 315 315 316
315 315 316 317 318 318 318 318 318 319 320 321 322 322 322 322 322 322 323 322 322 319 319 320 321 321 321 320 320 319 318 318 317 314 313 312 312 312 311 310 309 309 311 313 314 315 317 317 316 314 314 314 313 314
315 316 317 318 319 320 320 321 320 319 320 320 322 322 322 323 323 322 322 323 323 321 320 321 322 321 321 321 319 318 318 318 318 318 314 313 312 312 312 312 311 310 310 308 308 310 311 312 312 313 313 313 312 311
316 316 317 317 319 322 323 323 322 323 323 323 323 322 323 324 324 322 322 323 323 322 322 322 322 321 320 319 318 318 318 318 319 319 317 314 313 313 312 312 312 312 311 311 310 308 306 305 306 306 306 306 306 306
Wind_Speed
11 11 12 13 13 13 13 15 15 14 15 16 17 18 16 15 13 12 10 6 4 5 12 15 14 9 6 3 2 2 6 2 1 4 3 4 4 4 3 5 6 10 7 6 4 7 12 11 8 8 2 1 6 10
13 10 11 12 13 14 14 14 14 15 15 15 16 17 18 17 16 13 9 8 9 10 10 14 16 14 16 13 8 4 2 2 3 2 2 2 4 2 3 5 2 6 9 7 9 5 1 11 1 3 7 9 14 15
16 15 13 12 13 14 14 15 15 15 16 16 16 18 19 18 17 13 11 7 7 6 10 5 2 5 6 9 14 7 5 6 3 4 3 2 5 2 4 5 3 5 4 4 2 10 12 9 10 10 6 9 15 13
19 17 15 14 14 14 15 15 16 16 16 16 16 18 17 17 15 14 8 6 6 5 3 1 6 2 6 6 7 10 12 9 8 6 5 4 4 6 4 4 5 3 5 4 6 11 12 13 6 8 8 15 14 9
17 17 17 16 16 16 16 15 17 17 18 16 16 17 17 16 12 8 3 5 9 6 4 8 9 9 8 7 8 11 16 16 8 5 6 5 5 4 6 4 10 7 10 9 12 9 6 13 17 19 15 16 12 11
17 17 17 18 19 14 16 17 17 17 18 17 16 16 16 13 9 5 2 2 7 10 3 3 4 5 9 7 11 13 12 12 8 7 6 7 12 7 6 10 12 16 22 26 21 25 18 19 22 23 21 15 11 11
15 14 14 14 14 15 15 16 16 16 17 16 16 17 13 9 5 2 1 5 7 6 3 5 5 3 7 7 6 6 7 6 7 5 6 7 11 8 8 13 20 19 22 23 24 19 17 21 20 19 20 18 14 16
14 15 11 11 12 14 14 13 14 15 16 16 17 15 10 7 5 4 4 5 5 3 2 3 3 4 2 3 3 3 3 3 5 4 4 4 3 4 5 10 19 26 32 29 32 28 26 27 27 25 16 16 18 16
13 15 14 14 14 13 13 12 13 13 15 14 15 11 5 2 2 2 5 3 4 2 3 2 2 2 3 3 4 2 1 3 2 3 2 2 1 2 11 21 25 20 12 16 16 15 18 21 22 17 16 15 16 13
12 13 14 14 13 12 11 12 13 11 12 13 11 1 0 1 2 7 1 1 2 3 4 5 3 3 3 2 2 3 0 1 2 1 1 1 2 7 27 30 16 16 14 8 11 18 14 10 10 9 11 15 13 11
12 12 13 13 13 12 12 11 10 8 9 5 2 2 2 3 3 1 1 3 2 3 6 7 8 4 3 2 2 1 2 1 3 1 1 2 2 10 29 29 24 16 6 5 7 7 7 5 4 4 1 4 8 9
11 11 11 10 9 9 8 9 7 7 6 5 7 11 6 2 1 2 2 2 4 3 5 4 3 6 3 3 3 3 2 0 4 3 1 1 3 19 22 27 28 25 18 12 9 7 12 10 9 8 7 8 8 5
10 10 10 8 7 6 7 8 8 9 9 7 2 2 2 2 0 5 5 3 3 5 6 5 3 3 2 4 4 1 3 4 3 2 3 3 12 18 22 25 26 23 22 17 15 14 13 11 11 11 9 10 11 11
10 10 10 9 11 9 8 9 9 8 4 2 2 2 5 4 5 5 3 2 2 3 3 4 2 2 2 3 1 3 1 3 3 3 3 2 14 19 23 21 19 21 22 21 17 16 14 12 13 11 10 12 14 11
10 9 9 8 7 9 10 11 11 7 4 3 3 4 7 8 7 6 7 5 5 7 3 1 2 1 1 2 0 2 3 4 2 2 3 17 26 21 21 21 19 17 20 22 18 17 17 15 12 12 13 14 15 15
9 5 3 4 5 7 9 13 10 8 4 4 6 4 7 4 6 4 4 7 8 4 3 2 2 1 2 2 3 4 3 2 2 4 19 26 21 22 22 21 19 19 19 21 20 17 15 14 14 15 14 16 17 17
7 1 3 4 5 7 10 9 6 5 4 4 6 9 12 10 9 8 11 6 5 4 1 2 2 2 1 2 3 1 2 5 18 19 21 20 22 22 22 21 20 20 19 17 16 16 15 14 14 13 14 14 16 14
7 3 4 4 5 9 9 7 3 4 6 9 6 4 10 13 8 10 7 4 7 5 4 2 3 3 3 2 1 3 8 10 9 10 10 11 15 20 23 24 22 19 18 17 16 16 16 14 13 12 12 12 11 9
10 7 7 5 7 4 4 5 6 4 9 6 11 16 15 15 18 18 16 12 11 6 4 3 3 3 3 3 2 3 4 6 7 9 10 15 21 28 25 24 19 18 17 15 13 15 15 14 12 10 10 11 6 3
12 9 7 10 9 4 3 4 5 5 5 4 7 9 8 7 6 6 8 12 11 5 3 3 3 5 5 5 9 5 2 5 13 18 22 24 25 32 35 33 27 21 17 13 10 9 8 7 5 7 10 4 1 2
5 3 5 11 16 8 4 4 5 6 6 6 8 6 5 7 6 7 8 11 5 4 5 7 8 7 6 7 11 8 8 11 16 19 26 30 28 27 36 36 25 12 11 10 8 5 4 2 2 5 3 4 7 7
3 2 6 9 5 5 6 7 6 4 5 6 6 6 5 4 4 6 10 5 5 7 8 9 13 13 12 15 13 10 12 16 21 27 28 20 17 24 33 37 23 9 5 3 2 1 1 1 1 1 5 9 9 7
8 8 5 7 5 5 4 7 5 4 3 3 3 3 3 4 3 10 4 5 7 10 10 9 12 15 15 13 13 12 14 18 22 22 21 20 14 15 34 33 13 8 5 7 6 5 6 7 6 7 9 12 13 14
11 5 4 5 8 4 5 7 6 4 4 3 3 3 3 4 9 3 3 5 9 10 15 19 20 18 16 17 14 8 11 16 17 18 20 24 20 13 35 27 11 13 12 12 13 13 15 12 10 10 10 13 16 18
4 5 5 6 7 4 4 4 4 3 4 6 3 3 3 6 4 3 3 4 10 15 22 25 23 20 15 10 8 7 9 11 13 17 17 20 19 17 32 39 16 12 12 13 14 14 14 12 9 10 12 12 15 19
4 8 7 5 5 5 5 3 6 7 3 3 5 2 4 2 3 4 3 5 8 10 26 29 25 21 17 11 8 5 7 9 13 15 12 17 20 10 15 27 33 29 22 20 20 16 10 11 13 13 15 16 19 21
3 5 8 8 4 3 4 4 6 5 3 3 2 4 4 3 4 2 4 7 6 4 17 27 24 19 13 7 2 3 3 6 11 12 9 13 17 20 14 7 8 14 17 16 15 17 12 15 22 24 22 19 21 25
6 4 5 6 7 6 2 3 3 3 3 2 3 3 2 3 1 2 2 3 2 6 12 19 20 17 12 7 5 4 3 4 8 10 10 11 13 15 16 15 16 17 17 15 12 18 26 32 33 27 23 20 27 26
5 4 5 3 5 5 6 5 4 3 3 5 2 2 2 2 2 2 3 2 6 11 14 18 19 18 15 12 9 5 4 1 5 7 9 11 12 14 15 16 17 18 20 19 16 19 23 22 17 13 15 15 17 21
5 9 5 4 4 5 7 11 7 7 5 4 3 4 6 8 9 10 12 10 11 15 15 16 18 18 17 14 11 10 7 5 5 8 8 10 11 13 14 15 15 15 15 15 15 12 10 8 6 7 15 18 19 19
3 6 5 6 5 11 19 19 16 14 14 11 11 11 11 8 12 10 7 9 11 14 18 17 13 12 13 15 13 11 12 10 9 10 10 10 12 15 17 17 16 15 14 14 14 13 13 14 16 18 19 21 20 20
6 10 6 3 4 6 6 6 7 9 9 8 9 8 4 4 4 6 10 13 14 17 18 16 13 12 12 11 11 11 13 12 11 5 11 10 10 10 12 15 17 20 21 18 15 13 13 13 14 13 14 15 16 18
5 7 9 6 4 2 2 4 4 3 5 5 5 6 6 4 4 4 5 8 13 16 15 16 13 10 10 16 17 14 12 10 7 5 14 12 9 9 8 8 10 12 15 18 20 19 17 16 15 15 14 14 13 12
Wind_Direction
312 332 345 350 348 345 346 351 351 344 350 352 355 357 356 354 352 344 328 310 267 251 267 257 253 229 204 200 254 344 305 193 251 220 229 218 232 211 246 245 205 202 197 205 200 239 259 188 145 225 61 330 288 287
281 301 320 331 343 348 345 343 345 348 346 346 348 350 349 346 345 341 326 306 279 256 265 272 264 248 242 249 249 227 275 282 265 265 240 287 243 238 258 251 152 239 229 231 213 223 343 196 142 179 328 297 288 283
271 276 284 303 315 328 340 339 339 340 341 340 341 343 344 343 343 341 335 325 309 279 296 294 332 165 200 224 214 204 231 222 227 247 303 292 261 196 244 237 250 221 194 243 191 237 236 233 253 286 310 301 309 289
266 271 271 279 294 310 322 333 336 335 336 336 336 339 341 343 345 343 357 23 24 320 300 304 162 179 184 197 217 232 247 259 260 281 264 258 250 210 245 278 248 279 157 240 254 270 275 267 257 314 317 324 311 282
269 270 272 268 277 291 300 313 325 331 330 331 332 336 336 338 341 349 23 44 20 14 297 289 277 230 215 235 256 257 255 245 249 238 229 236 238 240 238 263 254 228 253 254 265 283 310 291 307 309 305 312 302 280
270 270 271 272 279 269 286 300 309 320 328 326 326 330 329 326 332 341 320 339 351 0 343 308 305 204 203 260 286 285 270 226 211 206 226 233 237 226 249 255 256 249 242 252 257 273 278 281 293 291 293 283 303 273
268 273 277 278 272 267 276 288 295 309 321 320 323 324 319 312 297 325 345 342 349 349 353 301 296 245 253 279 279 270 242 212 207 228 234 249 251 205 257 262 263 257 257 262 259 265 275 277 276 282 275 264 285 274
260 271 272 280 270 269 270 281 287 301 315 315 322 321 310 291 253 263 287 329 337 343 312 293 280 302 255 273 277 256 221 217 223 255 252 251 266 232 258 317 309 273 261 260 259 264 270 282 282 274 247 241 273 259
266 270 276 277 278 276 274 269 280 298 312 314 321 320 314 211 189 243 296 295 257 260 300 259 279 329 303 262 276 289 258 247 190 251 251 281 278 245 321 317 302 303 297 285 286 280 281 277 278 269 241 253 246 251
281 275 274 275 273 273 265 267 273 295 314 318 319 302 240 231 254 313 349 255 220 216 229 254 239 255 283 334 292 306 201 293 280 231 269 286 304 333 334 328 307 310 293 302 314 323 313 311 299 278 234 234 242 251
288 283 273 272 274 270 257 271 263 293 321 322 306 257 248 282 295 191 235 219 184 245 217 236 227 276 273 270 287 251 319 281 270 116 293 46 334 298 328 339 357 2 330 333 345 324 30 13 31 23 65 278 253 247
294 287 276 270 274 283 245 252 258 291 297 277 273 282 274 202 167 249 220 205 219 249 207 210 234 225 262 230 252 216 275 240 249 334 116 269 250 312 332 346 2 14 35 28 5 351 11 13 21 29 30 8 350 261
295 285 272 246 255 268 241 244 269 285 300 304 208 199 174 165 169 208 201 204 230 208 210 208 227 213 217 230 244 247 239 230 315 228 153 219 285 322 335 344 345 0 9 15 9 11 6 350 354 347 358 356 345 330
296 284 272 261 245 243 261 235 248 266 264 232 189 280 208 204 235 210 224 224 237 227 247 248 234 210 213 227 215 251 260 274 252 245 165 233 318 321 328 328 328 337 337 342 347 347 345 346 351 347 345 343 338 324
302 297 279 276 255 252 237 231 242 235 236 215 193 230 225 233 255 256 263 270 283 270 245 235 134 195 217 275 175 320 265 250 243 347 325 318 316 317 319 321 316 304 309 310 324 332 333 336 338 335 336 337 331 317
316 312 270 263 261 250 241 219 208 200 236 223 226 251 239 261 259 237 243 257 276 223 188 119 104 234 262 270 243 233 273 320 16 308 305 306 309 315 316 317 312 303 296 293 297 308 319 325 327 329 330 324 324 319
327 140 278 276 259 221 201 185 185 225 234 226 240 241 254 276 261 261 277 272 225 174 238 155 184 240 134 238 247 234 316 312 306 303 302 310 321 328 324 320 314 305 301 289 286 290 297 306 315 319 319 318 323 320
317 249 279 302 216 181 190 204 207 242 249 243 241 256 241 244 255 259 257 262 193 195 174 220 140 209 230 243 247 353 322 336 348 4 19 19 4 358 353 347 333 313 301 292 285 284 287 291 298 312 315 322 329 325
297 258 237 255 204 216 227 205 214 254 246 253 261 263 260 261 264 265 261 256 218 200 173 176 215 213 224 204 270 137 72 11 348 346 340 343 345 349 340 331 321 314 304 299 292 291 286 282 284 300 310 322 322 315
285 257 248 235 211 222 240 215 212 262 267 260 251 254 250 251 268 264 221 185 179 173 189 220 220 193 196 225 165 163 208 314 318 322 325 331 336 339 334 333 320 309 304 305 307 288 294 282 264 280 301 306 270 173
306 273 223 186 197 225 261 213 220 239 268 258 278 258 261 244 233 196 180 178 182 219 225 219 207 192 169 174 183 223 262 288 301 304 310 313 330 344 343 338 343 307 297 294 298 307 315 284 214 282 303 146 147 104
238 254 172 165 191 239 243 226 229 267 258 263 275 245 248 222 200 195 176 177 226 228 215 216 198 182 190 201 220 252 284 294 310 324 338 336 322 339 348 345 347 325 320 301 251 39 29 98 108 133 132 143 140 118
220 212 216 200 213 225 251 212 221 228 252 252 257 241 224 209 193 162 205 223 237 234 226 212 188 188 200 216 239 269 297 312 328 343 351 2 2 358 0 1 28 17 70 94 95 97 98 104 106 110 124 144 143 136
195 202 206 208 209 248 228 197 214 233 248 245 230 256 184 156 158 202 248 235 227 211 192 175 174 191 209 228 246 291 321 329 342 4 5 15 24 22 21 20 54 77 85 93 93 102 101 92 89 91 102 131 141 142
185 207 218 223 212 219 240 189 206 224 240 207 222 230 176 166 189 207 245 259 236 212 191 185 185 194 207 217 250 299 334 340 3 8 12 22 40 54 37 35 72 89 78 88 88 89 96 94 94 90 103 122 130 134
209 203 205 212 195 219 198 211 201 214 239 248 219 127 157 170 203 231 227 244 248 227 196 195 196 200 213 228 255 298 339 355 10 17 17 17 26 44 61 51 45 54 67 76 75 71 92 117 110 103 103 121 123 131
239 233 225 225 243 262 267 281 266 253 235 230 157 167 179 216 222 241 264 290 277 264 200 199 200 203 202 209 243 325 337 345 359 17 35 29 22 25 24 33 37 46 32 42 40 35 59 118 113 106 108 118 117 119
244 241 228 189 201 217 270 254 222 237 231 208 158 184 221 209 235 199 253 303 193 168 176 194 203 203 204 209 228 261 274 324 13 22 26 27 25 21 34 40 45 47 46 58 68 68 102 106 101 99 86 96 99 107
233 230 204 243 221 241 219 225 248 251 210 188 189 233 249 245 249 249 270 245 196 183 181 180 187 195 205 212 227 211 193 223 49 58 50 44 39 46 56 56 58 57 55 67 108 103 120 125 121 84 47 88 113 142
236 199 213 226 217 223 226 211 233 255 272 244 252 276 285 295 305 286 269 245 216 193 184 187 188 195 205 206 204 199 200 172 122 119 103 78 65 70 70 67 66 65 64 59 78 130 132 125 106 74 95 98 102 108
233 191 223 234 251 248 243 240 248 262 264 264 276 276 273 282 294 288 273 224 216 200 191 193 197 193 190 188 192 188 178 165 156 154 139 124 103 91 83 79 72 69 73 83 83 78 87 98 100 104 106 108 108 108
204 207 209 235 256 288 260 217 208 220 248 254 262 246 243 224 246 270 257 232 218 201 199 202 200 198 194 190 179 172 175 186 186 175 178 160 137 115 99 95 97 96 91 84 80 87 92 98 103 107 113 117 122 124
226 233 228 266 264 254 203 182 194 224 210 221 234 238 239 216 240 243 260 219 213 202 204 205 192 193 193 181 174 176 188 203 224 195 185 185 174 149 130 118 112 104 101 97 91 88 91 97 102 105 109 114 117 119